Regional Weather Roundup
Issued by NWS

Home | Current Version | Previous Version | Text Only | Print | Product List | Glossary Off
Versions: 1 2 3 4 5 6 7 8 9 10 11 12 13 14 15 16 17 18 19 20 21 22 23 24 25 26 27 28 29 30 31 32 33 34 35 36 37 38 39 40 41 42 43 44 45 46 47 48 49 50

000
ASUS43 KMPX 311901
RWRMN
WEATHER ROUNDUP FOR MINNESOTA
NATIONAL WEATHER SERVICE TWIN CITIES/CHANHASSEN MN
200 PM CDT THU JUL 31 2014


NOTE: "FAIR" INDICATES FEW OR NO CLOUDS BELOW 12,000 FEET WITH NO
SIGNIFICANT WEATHER AND/OR OBSTRUCTIONS TO VISIBILITY. N/A MEANS
CURRENT SKY AND/OR WEATHER CONDITIONS ARE NOT AVAILABLE.

MNZ060>063-068>070-312000-
   Twin Cities Metro

CITY           SKY/WX    TMP DP  RH WIND       PRES   REMARKS
TWIN CITIES    PTSUNNY   81  52  36 W10       30.02S
ST PAUL        MOSUNNY   81  53  37 W10       30.01F
CRYSTAL        MOSUNNY   82  52  35 NW7       30.01F
BLAINE         PTSUNNY   82  55  39 SW6       30.02S
LAKEVILLE      MOSUNNY   79  57  47 W6        30.03F
EDEN PRAIRIE   SUNNY     81  56  42 VRB6      30.02S
SOUTH ST PAUL  SUNNY     81  49  33 W6        30.01F
LAKE ELMO      FAIR      77  57  50 NW6       30.03S
$$
MNZ001>005-007-008-013>017-022>024-027-028-312000-
   Northwest Minnesota

CITY           SKY/WX    TMP DP  RH WIND       PRES   REMARKS
BEMIDJI        MOSUNNY   77  57  49 NW5       30.01F
HALLOCK        SUNNY     81  61  50 N3        30.00F
ROSEAU           N/A     79  57  47 NW7       30.01F
WARROAD        SUNNY     77  57  50 E5        30.01F
THIEF RVR FALL SUNNY     79  57  47 NW12      30.02S
CROOKSTON      SUNNY     79  63  57 N9        30.02F
FOSSTON        MOSUNNY   79  61  53 N8        30.03S
DETROIT LAKES  SUNNY     79  55  44 NW12G18   30.05S
MOORHEAD       MOSUNNY   81  63  54 N7        30.03S
PARK RAPIDS    MOSUNNY   81  57  43 NW13      30.02F
$$
MNZ006-009>011-018-025>026-312000-
   North Central Minnesota

CITY           SKY/WX    TMP DP  RH WIND       PRES   REMARKS
BAUDETTE       SUNNY     78  53  41 N8        30.01F
FLAG ISLAND    SUNNY     75  52  43 N3        29.99F
INTL FALLS     SUNNY     77  55  46 N7        29.99S
WASKISH        SUNNY     75  63  64 SW6       30.01S
BIG FORK       SUNNY    N/A N/A N/A VRB6      30.00S
LONGVILLE      MOSUNNY   77  61  57 CALM      30.01S
GRAND RAPIDS   MOSUNNY   77  55  47 N12       30.00S
CRANE LAKE     SUNNY     73  52  46 N3        29.99S
ORR            SUNNY     75  50  41 NW7       29.97S
COOK           SUNNY     75  54  46 NW5       29.99S
$$
MNZ012-019>021-037-312000-
   Northeast Minnesota

CITY           SKY/WX    TMP DP  RH WIND       PRES   REMARKS
DULUTH         MOSUNNY   78  54  43 NW8       29.98F
ELY            SUNNY     73  50  43 NW10G17   29.97F
HIBBING        SUNNY     79  53  40 N10       29.99S
EVELETH        SUNNY     77  52  41 NW9G17    30.00S
DULUTH HARBOR  MOSUNNY   79  61  53 CALM      29.96F
TWO HARBORS    MOSUNNY   77  54  44 NW6       29.95S
SILVER BAY     SUNNY     77  57  50 SW5       29.94S
GRAND MARAIS     N/A     56  48  74 SW7       29.93S
G MARAIS ARPRT SUNNY     72  46  40 NW7       29.98S
$$
MNZ029>031-032-039>041-046>048-054>057-064-312000-
   West Central Minnesota

CITY           SKY/WX    TMP DP  RH WIND       PRES   REMARKS
FERGUS FALLS   SUNNY     79  54  41 NW3       30.03S
WHEATON        MOSUNNY   77  57  50 W5        30.06S
MORRIS         MOSUNNY   79  57  47 N8        30.04S
ALEXANDRIA     SUNNY     78  55  44 VRB7      30.06S
ELBOW LAKE     FAIR      77  57  49 NW3       30.04S
WADENA         MOSUNNY   79  59  50 W8        30.03S
GLENWOOD       SUNNY     79  55  44 NW6       30.06S
APPLETON       SUNNY     82  52  34 W7        30.04S
BENSON         SUNNY     81  57  44 CALM      30.04F
ORTONVILLE     SUNNY     81  54  39 N3        30.05S
MADISON        SUNNY     81  54  39 N5        30.05F
WILLMAR        FAIR      79  54  41 W9        30.06S
$$
MNZ033>034-036-042>043-049>051-058-059-312000-
   Central Minnesota

CITY           SKY/WX    TMP DP  RH WIND       PRES   REMARKS
ST CLOUD       MOSUNNY   84  54  35 VRB6      30.02F
SAUK CENTRE    FAIR      79  55  43 W7        30.04F
PAYNESVILLE    SUNNY     78  51  38 CALM      30.04F HAZE
AITKIN         MOSUNNY   82  63  51 W6        29.99S
PINE RIVER     MOSUNNY   79  61  53 NW8       30.04S
BRAINERD       MOSUNNY   79  57  46 W10       30.01F
STAPLES        MOSUNNY   81  54  39 NW10      30.03S
LONG PRAIRIE   PTSUNNY   77  55  47 SW3       30.05S
LITTLE FALLS   MOSUNNY   79  52  38 W7        30.03S
LITCHFIELD     SUNNY     81  55  41 W7        30.04F
BUFFALO        SUNNY     79  53  40 CALM      30.04S
MAPLE LAKE     SUNNY     80  55  42 NW5       30.04S
$$
MNZ037-044-045-052-053-312000-
   East Central Minnesota

CITY           SKY/WX    TMP DP  RH WIND       PRES   REMARKS
PRINCETON      MOSUNNY   81  57  44 NW5       30.02S
MORA           PTSUNNY   75  59  57 W5        30.02S
CAMBRIDGE      MOSUNNY   82  63  51 W8        29.99F
RUSH CITY      MOSUNNY   80  61  51 W7        30.01S
MOOSE LAKE     MOSUNNY   79  59  50 N8        29.97S
HINCKLEY       FAIR      79  64  61 SW12      29.99F
CLOQUET        PTSUNNY   77  55  47 NW8       29.98F
MCGREGOR       MOSUNNY   79  59  50 NW9       30.00S
$$
MNZ071>073-080-081-089-090-097-098-312000-
   Southwest Minnesota

CITY           SKY/WX    TMP DP  RH WIND       PRES   REMARKS
MONTEVIDEO     SUNNY     82  57  42 NW8       30.06S
GRANITE FALLS  MOSUNNY   79  56  44 CALM      30.06F
CANBY          MOSUNNY   80  51  35 CALM      30.07S
MARSHALL       SUNNY     79  48  34 N3        30.05F
REDWOOD FALLS  MOSUNNY   79  52  38 NW6       30.05F
OLIVIA         MOSUNNY   79  54  41 NW5       30.05S
PIPESTONE      PTSUNNY   75  55  50 W3        30.08S
WINDOM         MOSUNNY   81  55  41 NW3       30.07F
WORTHINGTON    MOSUNNY   77  57  50 CALM      30.09S
JACKSON        MOSUNNY   77  55  47 CALM      30.08F
TRACY          SUNNY     79  56  45 NE5       30.06F
SLAYTON        MOSUNNY   78  52  39 CALM      30.08F
$$
MNZ065>067-074>077-082>085-091>093-312000-
   South Central Minnesota

CITY           SKY/WX    TMP DP  RH WIND       PRES   REMARKS
MANKATO        MOSUNNY   79  54  41 W7        30.05F
NEW ULM        SUNNY     79  55  44 N5        30.05F
ST JAMES       SUNNY     82  46  28 CALM      30.07S
FAIRMONT       MOSUNNY   81  52  36 W5        30.07S
GLENCOE        SUNNY     78  55  43 W3        30.03S
FARIBAULT      MOSUNNY   82  48  30 W6        30.05S
OWATONNA       SUNNY     79  54  41 W7        30.05F
WASECA         MOSUNNY   77  52  41 SW6       30.08S
ALBERT LEA     MOSUNNY   79  50  36 SW5       30.06F
$$
MNZ078>079-086>088-094>096-312000-
   Southeast Minnesota

CITY           SKY/WX    TMP DP  RH WIND       PRES   REMARKS
ROCHESTER      SUNNY     79  57  46 W10       30.07S
RED WING       SUNNY     82  54  36 W10       30.01S
STANTON        MOSUNNY   81  54  39 W9        30.02F
DODGE CENTER   MOSUNNY   79  55  44 W7        30.06S
WINONA         PTSUNNY   79  55  44 NW8       30.03S
AUSTIN         MOSUNNY   79  52  38 CALM      30.06F
PRESTON        MOSUNNY   77  59  54 W5        30.07S
$$
ABBREVIATIONS USED IN REMARKS
   TC - TEMPERATURES IN CELSIUS
  WCI - WIND CHILL INDEX
   HX - HEAT INDEX
  VSB - VISIBILITY
$$



USA.gov is the U.S. government's official web portal to all federal, state and local government web resources and services.